This is the latest recevied weather packets stored in our database for station/object WD7OO. If no packets are shown the sender has not sent any weather packets the latest 10 day(s).
| Time | Temp. | Humidity | Pressure | Rain* | Wind** | Luminosity | Snow |
|---|---|---|---|---|---|---|---|
| 1788034777 | 26.11° C | 66% | 1020.7 hPa | 0 mm | - | 242 W/m² | - |
| 1788034474 | 26.67° C | 65% | 1020.7 hPa | 0 mm | - | 198 W/m² | - |
| 1788034170 | 26.67° C | 65% | 1020.6 hPa | 0 mm | - | 269 W/m² | - |
| 1788033868 | 26.67° C | 67% | 1020.7 hPa | 0 mm | - | 333 W/m² | - |
| 1788033568 | 26.67° C | 65% | 1020.9 hPa | 0 mm | - | 258 W/m² | - |
| 1788033263 | 26.11° C | 67% | 1021 hPa | 0 mm | - | 285 W/m² | - |
| 1788032959 | 26.11° C | 63% | 1021 hPa | 0 mm | - | 284 W/m² | - |
| 1788032658 | 26.11° C | 65% | 1020.9 hPa | 0 mm | - | 226 W/m² | - |
| 1788032353 | 26.67° C | 64% | 1021.1 hPa | 0 mm | - | 228 W/m² | - |
| 1788032049 | 26.67° C | 66% | 1021 hPa | 0 mm | - | 244 W/m² | - |
| 1788031744 | 27.22° C | 65% | 1021 hPa | 0 mm | - | 294 W/m² | - |
| 1788031438 | 27.78° C | 62% | 1021 hPa | 0 mm | - | 399 W/m² | - |
| 1788031133 | 27.22° C | 65% | 1021.3 hPa | 0 mm | - | 571 W/m² | - |
| 1788030832 | 26.67° C | 64% | 1021.2 hPa | 0 mm | - | 522 W/m² | - |
| 1788030532 | 27.22° C | 65% | 1021.2 hPa | 0 mm | - | 413 W/m² | - |
| 1788030227 | 26.67° C | 62% | 1021.5 hPa | 0 mm | - | 427 W/m² | - |
| 1788029921 | 26.67° C | 63% | 1021.2 hPa | 0 mm | - | 331 W/m² | - |
| 1788029617 | 26.67° C | 66% | 1021.4 hPa | 0 mm | - | 348 W/m² | - |
| 1788029312 | 27.22° C | 63% | 1021.4 hPa | 0 mm | - | 388 W/m² | - |
| 1788029011 | 26.67° C | 65% | 1021.5 hPa | 0 mm | - | 367 W/m² | - |
| 1788028710 | 26.67° C | 65% | 1021.6 hPa | 0 mm | - | 321 W/m² | - |
| 1788028405 | 27.22° C | 63% | 1021.8 hPa | 0 mm | - | 308 W/m² | - |
| 1788028101 | 26.67° C | 63% | 1021.7 hPa | 0 mm | - | 473 W/m² | - |
| 1788027801 | 26.67° C | 65% | 1021.9 hPa | 0 mm | - | 457 W/m² | - |
| 1788027495 | 26.11° C | 65% | 1021.8 hPa | 0 mm | - | 351 W/m² | - |
* Rain latest hour (hover to see other rain measurements)
** Current wind speed in m/s (hover to see current wind gust speed)